DW1590 Weather Reports


Display with metric or nautical units.
time (UTC)temp
F
wind
direction
speed
MPH
gust
MPH
rain 1hr
in
rain 24hr
in
rain mn
in
humidity
%
barometer
mb
20201001191519 70 279 2.0 0.0 0.00 0.00 0.00 64 1012.5
20201001190018 70 296 5.0 0.0 0.00 0.00 0.00 63 1012.7
20201001184524 69 256 4.0 0.0 0.00 0.00 0.00 65 1013.0
20201001183026 69 5 6.0 0.0 0.00 0.00 0.00 66 1013.0
20201001181520 69 347 5.0 0.0 0.00 0.00 0.00 66 1013.1
20201001180021 70 311 4.0 0.0 0.00 0.00 0.00 67 1013.1
20201001174519 69 336 6.0 0.0 0.00 0.00 0.00 67 1013.1
20201001173019 69 336 5.0 0.0 0.00 0.00 0.00 68 1013.2
20201001171509 68 261 5.0 0.0 0.00 0.00 0.00 69 1013.3
20201001170007 68 323 6.0 0.0 0.00 0.00 0.00 68 1013.4
20201001164503 69 294 6.0 0.0 0.00 0.00 0.00 68 1013.4
20201001163157 70 321 5.0 0.0 0.00 0.00 0.00 68 1013.3
20201001161711 69 270 6.0 0.0 0.00 0.00 0.00 68 1013.4
20201001160220 68 292 5.0 0.0 0.00 0.00 0.00 69 1013.4
20201001154640 66 306 4.0 0.0 0.00 0.00 0.00 72 1013.3
20201001153210 66 319 5.0 0.0 0.00 0.00 0.00 75 1013.4
20201001151958 65 5 5.0 0.0 0.00 0.00 0.00 78 1013.6
20201001150255 64 261 4.0 0.0 0.00 0.00 0.00 80 1013.5
20201001144608 63 316 3.0 0.0 0.00 0.00 0.00 83 1013.6
20201001143133 62 293 3.0 0.0 0.00 0.00 0.00 87 1013.5
20201001141555 61 266 2.0 0.0 0.00 0.00 0.00 88 1013.4
20201001140053 60 302 3.0 0.0 0.00 0.00 0.00 90 1013.4
20201001134541 59 315 3.0 0.0 0.00 0.00 0.00 91 1013.3
20201001133030 58 302 3.0 0.0 0.00 0.00 0.00 92 1013.1
20201001131524 57 314 3.0 0.0 0.00 0.00 0.00 93 1013.1
20201001130057 57 275 2.0 0.0 0.00 0.00 0.00 93 1013.0
20201001124542 57 338 3.0 0.0 0.00 0.00 0.00 93 1012.9
20201001123022 56 314 5.0 0.0 0.00 0.00 0.00 93 1012.7
20201001121519 56 296 4.0 0.0 0.00 0.00 0.00 93 1012.6
20201001120037 55 294 3.0 0.0 0.00 0.00 0.00 93 1012.9
20201001114516 55 255 1.0 0.0 0.00 0.00 0.00 93 1013.0
20201001113029 55 244 0.0 0.0 0.00 0.00 0.00 93 1012.9
20201001111523 55 263 1.0 0.0 0.00 0.00 0.00 92 1012.7
20201001104639 55 274 0.0 0.0 0.00 0.00 0.00 92 1012.3
20201001103304 55 264 1.0 0.0 0.00 0.00 0.00 92 1012.0
20201001101900 55 215 2.0 0.0 0.00 0.00 0.00 92 1011.9
20201001100215 55 237 2.0 0.0 0.00 0.00 0.00 92 1012.0
20201001094648 55 233 2.0 0.0 0.00 0.00 0.00 92 1011.9
20201001093135 56 248 0.0 0.0 0.00 0.00 0.00 92 1011.8
20201001091648 56 256 1.0 0.0 0.00 0.00 0.00 92 1011.7
20201001090152 56 228 2.0 0.0 0.00 0.00 0.00 92 1011.6
20201001084725 56 249 2.0 0.0 0.00 0.00 0.00 92 1011.2
20201001083200 56 209 2.0 0.0 0.00 0.00 0.00 92 1011.2
20201001081622 56 229 2.0 0.0 0.00 0.00 0.00 92 1011.1
20201001080132 56 222 3.0 0.0 0.00 0.00 0.00 92 1011.4
20201001074623 56 225 2.0 0.0 0.00 0.00 0.00 91 1011.3
20201001073210 56 207 2.0 0.0 0.00 0.00 0.00 91 1011.2
20201001071709 56 202 2.0 0.0 0.00 0.00 0.00 91 1011.4
20201001070218 56 194 2.0 0.0 0.00 0.00 0.00 90 1011.3
20201001064728 56 148 0.0 0.0 0.00 0.00 0.00 90 1011.5
20201001063155 56 209 0.0 0.0 0.00 0.00 0.00 89 1011.8
20201001061721 56 220 2.0 0.0 0.00 0.00 0.00 89 1011.9
20201001060153 56 241 1.0 0.0 0.00 0.00 0.00 88 1012.0
20201001054717 57 229 2.0 0.0 0.00 0.00 0.00 87 1012.0
20201001053221 57 219 0.0 0.0 0.00 0.00 0.00 86 1011.9
20201001051633 57 205 0.0 0.0 0.00 0.00 0.00 86 1012.0
20201001050228 58 206 1.0 0.0 0.00 0.00 0.00 85 1011.8
20201001044659 58 206 0.0 0.0 0.00 0.00 0.00 85 1011.9
20201001043138 59 206 1.0 0.0 0.00 0.00 0.00 85 1011.8
20201001041643 59 196 2.0 0.0 0.00 0.00 0.00 85 1011.8
20201001040120 59 217 2.0 0.0 0.00 0.00 0.00 84 1011.8
20201001034612 59 221 2.0 0.0 0.00 0.00 0.16 84 1011.7
20201001033055 59 194 2.0 0.0 0.00 0.00 0.16 84 1011.6
20201001031611 59 168 2.0 0.0 0.00 0.00 0.16 83 1011.7
20201001030117 59 205 3.0 0.0 0.00 0.00 0.16 83 1011.6
20201001024557 59 193 3.0 0.0 0.00 0.00 0.16 83 1011.6
20201001023056 60 215 3.0 0.0 0.00 0.00 0.16 83 1011.5
20201001021623 60 169 2.0 0.0 0.00 0.00 0.16 83 1011.3
20201001020041 60 194 4.0 0.0 0.00 0.00 0.16 82 1011.3
20201001014631 60 194 3.0 0.0 0.00 0.00 0.16 82 1011.1
20201001013055 60 174 4.0 0.0 0.00 0.00 0.16 82 1011.0
20201001011607 60 186 3.0 0.0 0.00 0.00 0.16 81 1011.1
20201001010104 60 169 2.0 0.0 0.00 0.00 0.16 80 1011.0
20201001004539 61 160 2.0 0.0 0.00 0.00 0.16 79 1011.1
20201001003037 61 195 2.0 0.0 0.00 0.00 0.16 79 1011.0
20201001001619 61 183 2.0 0.0 0.00 0.00 0.16 78 1011.0
20201001000045 62 180 2.0 0.0 0.00 0.00 0.16 77 1010.8
20200930234614 62 179 1.0 0.0 0.00 0.00 0.16 76 1010.6
20200930233038 62 202 2.0 0.0 0.00 0.00 0.16 76 1010.7
20200930231534 62 190 2.0 0.0 0.00 0.00 0.16 77 1010.5
20200930230112 63 197 2.0 0.0 0.00 0.00 0.16 75 1010.3
20200930224557 64 224 3.0 0.0 0.00 0.00 0.16 73 1010.2
20200930223041 65 198 2.0 0.0 0.00 0.00 0.16 71 1009.9
20200930221524 66 144 4.0 0.0 0.00 0.00 0.16 68 1009.7
20200930220019 67 202 4.0 0.0 0.00 0.00 0.16 65 1009.4
20200930214534 67 219 4.0 0.0 0.00 0.00 0.16 65 1009.4
20200930213031 68 167 5.0 0.0 0.00 0.00 0.16 64 1009.4
20200930211527 68 211 3.0 0.0 0.00 0.00 0.16 64 1009.4
20200930210029 69 232 4.0 0.0 0.00 0.00 0.16 63 1009.5
20200930204520 68 210 4.0 0.0 0.00 0.00 0.16 63 1009.4
20200930203052 69 215 6.0 0.0 0.00 0.00 0.16 61 1009.5
20200930201607 69 144 6.0 0.0 0.00 0.00 0.16 61 1009.4
20200930200043 69 215 5.0 0.0 0.00 0.00 0.16 61 1009.2
20200930194514 69 220 5.0 0.0 0.00 0.00 0.16 58 1009.1
20200930193021 69 242 4.0 0.0 0.00 0.00 0.16 60 1009.4